SAS983 ENCN-EKCH

Flight info

Callsign SAS983
Flight time N/A
Altitude 33000
Route AMSEV DCT MAKUR DCT TOPLA L996 ERNOV
Aircraft A320/M-SDE3FGHIRWY/LB1

Departure

Time N/A
Airport Kristiansand Airport (ENCN)

Arrival

Time 2026-04-26 20:38
Airport Copenhagen Kastrup Airport (EKCH)
Time Latitude Longitude Altitude Speed Heading
2026-04-26 20:00 57.66445 8.93060 21798 ft 428 kts 96°
2026-04-26 20:01 57.65984 8.98580 22294 ft 432 kts 96°
2026-04-26 20:01 57.65514 9.04124 22779 ft 435 kts 96°
2026-04-26 20:01 57.65032 9.09735 23256 ft 439 kts 96°
2026-04-26 20:01 57.64543 9.15380 23720 ft 442 kts 96°
2026-04-26 20:02 57.64050 9.21074 24131 ft 445 kts 96°
2026-04-26 20:02 57.63555 9.26783 24534 ft 448 kts 96°
2026-04-26 20:02 57.63053 9.32532 24939 ft 450 kts 96°
2026-04-26 20:02 57.62709 9.36438 25213 ft 452 kts 96°
2026-04-26 20:03 57.62031 9.44121 25745 ft 454 kts 96°
2026-04-26 20:03 57.61513 9.49946 26129 ft 457 kts 96°
2026-04-26 20:03 57.60988 9.55804 26514 ft 459 kts 97°
2026-04-26 20:03 57.60458 9.61687 26901 ft 461 kts 97°
2026-04-26 20:04 57.59924 9.67591 27297 ft 462 kts 97°
2026-04-26 20:04 57.59116 9.73415 27659 ft 468 kts 111°
2026-04-26 20:04 57.57519 9.78719 28008 ft 472 kts 128°
2026-04-26 20:04 57.55206 9.83061 28358 ft 473 kts 144°
2026-04-26 20:05 57.52373 9.86074 28669 ft 470 kts 161°
2026-04-26 20:05 57.49245 9.87745 29006 ft 468 kts 170°
2026-04-26 20:05 57.46065 9.89128 29349 ft 470 kts 171°
2026-04-26 20:05 57.42863 9.90483 29679 ft 472 kts 171°
2026-04-26 20:06 57.39651 9.91824 30018 ft 474 kts 171°
2026-04-26 20:06 57.36426 9.93172 30335 ft 476 kts 171°
2026-04-26 20:06 57.33189 9.94530 30603 ft 478 kts 171°
2026-04-26 20:06 57.29941 9.95902 30852 ft 480 kts 171°
2026-04-26 20:07 57.26683 9.97281 31105 ft 481 kts 171°
2026-04-26 20:07 57.23407 9.98668 31322 ft 483 kts 171°
2026-04-26 20:07 57.20122 10.00061 31607 ft 485 kts 171°
2026-04-26 20:07 57.16844 10.01446 31979 ft 483 kts 171°
2026-04-26 20:08 57.13608 10.02810 32337 ft 483 kts 171°
2026-04-26 20:08 57.10289 10.04202 32689 ft 482 kts 171°
2026-04-26 20:08 57.07062 10.05554 33034 ft 482 kts 171°
2026-04-26 20:08 57.03782 10.06930 33272 ft 482 kts 171°
2026-04-26 20:09 56.97277 10.09660 33250 ft 478 kts 171°
2026-04-26 20:09 56.91075 10.12242 33285 ft 480 kts 171°
2026-04-26 20:10 56.84561 10.14935 33284 ft 480 kts 171°
2026-04-26 20:10 56.78047 10.17607 33284 ft 480 kts 171°
2026-04-26 20:11 56.71534 10.20282 33280 ft 480 kts 171°
2026-04-26 20:12 56.62823 10.23858 33263 ft 480 kts 171°
2026-04-26 20:12 56.56310 10.26512 33267 ft 480 kts 171°
2026-04-26 20:13 56.49782 10.29166 33279 ft 480 kts 171°
2026-04-26 20:13 56.43254 10.31813 32948 ft 480 kts 171°
2026-04-26 20:13 56.39985 10.33130 31944 ft 485 kts 171°
2026-04-26 20:14 56.36655 10.34459 30888 ft 491 kts 171°
2026-04-26 20:14 56.33323 10.35791 30172 ft 488 kts 171°
2026-04-26 20:14 56.30025 10.37120 29462 ft 484 kts 171°
2026-04-26 20:14 56.26797 10.38427 28775 ft 479 kts 171°
2026-04-26 20:15 56.23520 10.39752 28097 ft 474 kts 171°
2026-04-26 20:15 56.20324 10.41038 27443 ft 470 kts 171°
2026-04-26 20:15 56.17144 10.42312 26782 ft 467 kts 171°
2026-04-26 20:15 56.13987 10.43570 26129 ft 463 kts 171°
2026-04-26 20:16 56.10845 10.44814 25477 ft 459 kts 171°
2026-04-26 20:16 56.07779 10.46024 24857 ft 456 kts 171°
2026-04-26 20:16 56.04694 10.47244 24228 ft 453 kts 171°
2026-04-26 20:16 56.01623 10.48463 23595 ft 450 kts 171°
2026-04-26 20:17 55.98577 10.49673 23002 ft 445 kts 170°
2026-04-26 20:17 55.95638 10.51346 22459 ft 443 kts 158°
2026-04-26 20:17 55.93003 10.54114 21977 ft 439 kts 143°
2026-04-26 20:17 55.90809 10.57837 21507 ft 434 kts 129°
2026-04-26 20:18 55.89166 10.62293 21004 ft 427 kts 115°
2026-04-26 20:18 55.88132 10.67193 20504 ft 419 kts 101°
2026-04-26 20:18 55.87518 10.72235 20014 ft 415 kts 99°
2026-04-26 20:18 55.86914 10.77255 19516 ft 412 kts 99°
2026-04-26 20:19 55.86306 10.82233 19009 ft 410 kts 99°
2026-04-26 20:19 55.85469 10.87081 18503 ft 412 kts 111°
2026-04-26 20:19 55.84307 10.91724 17929 ft 410 kts 112°
2026-04-26 20:19 55.83134 10.96345 17366 ft 409 kts 112°
2026-04-26 20:20 55.81958 11.00938 16819 ft 407 kts 112°
2026-04-26 20:20 55.80781 11.05505 16272 ft 405 kts 113°
2026-04-26 20:20 55.79608 11.10050 15730 ft 403 kts 113°
2026-04-26 20:20 55.78440 11.14570 15206 ft 401 kts 113°
2026-04-26 20:21 55.77277 11.19061 14699 ft 399 kts 113°
2026-04-26 20:21 55.76119 11.23532 14187 ft 398 kts 113°
2026-04-26 20:21 55.74968 11.27981 13651 ft 395 kts 113°
2026-04-26 20:21 55.73830 11.32369 13319 ft 386 kts 113°
2026-04-26 20:22 55.72716 11.36647 13051 ft 380 kts 113°
2026-04-26 20:22 55.71610 11.40885 12792 ft 373 kts 113°
2026-04-26 20:22 55.70534 11.44997 12537 ft 364 kts 113°
2026-04-26 20:22 55.69478 11.49024 12265 ft 356 kts 113°
2026-04-26 20:23 55.68442 11.52985 11832 ft 354 kts 113°
2026-04-26 20:23 55.67420 11.56885 11655 ft 344 kts 113°
2026-04-26 20:23 55.66426 11.60667 11523 ft 333 kts 113°
2026-04-26 20:23 55.65467 11.64313 11414 ft 322 kts 113°
2026-04-26 20:24 55.64536 11.67865 11275 ft 313 kts 113°
2026-04-26 20:24 55.63629 11.71307 11153 ft 304 kts 113°
2026-04-26 20:24 55.62707 11.74615 11017 ft 295 kts 118°
2026-04-26 20:24 55.61436 11.77419 10804 ft 291 kts 135°
2026-04-26 20:25 55.59905 11.79767 10471 ft 291 kts 144°
2026-04-26 20:25 55.58765 11.81002 10250 ft 290 kts 158°
2026-04-26 20:25 55.56276 11.82689 9801 ft 288 kts 163°
2026-04-26 20:25 55.54379 11.83913 9473 ft 286 kts 156°
2026-04-26 20:26 55.52795 11.85900 9161 ft 284 kts 131°
2026-04-26 20:26 55.51644 11.88713 8821 ft 282 kts 125°
2026-04-26 20:26 55.50218 11.91003 8479 ft 277 kts 154°
2026-04-26 20:26 55.48398 11.91864 8145 ft 269 kts 184°
2026-04-26 20:27 55.46632 11.91141 7792 ft 257 kts 212°
2026-04-26 20:27 55.45257 11.89235 7415 ft 249 kts 233°
2026-04-26 20:27 55.44528 11.86623 7255 ft 235 kts 266°
2026-04-26 20:27 55.44725 11.83797 7265 ft 233 kts 296°
2026-04-26 20:28 55.45674 11.81660 7265 ft 216 kts 319°
2026-04-26 20:28 55.46836 11.79998 7268 ft 214 kts 322°
2026-04-26 20:28 55.48040 11.78465 7263 ft 214 kts 332°
2026-04-26 20:28 55.49481 11.77798 7272 ft 218 kts 358°
2026-04-26 20:29 55.50958 11.78507 7264 ft 227 kts 28°
2026-04-26 20:29 55.52041 11.80565 7272 ft 237 kts 61°
2026-04-26 20:29 55.52320 11.83441 7272 ft 245 kts 97°
2026-04-26 20:29 55.51891 11.86371 7262 ft 248 kts 104°
2026-04-26 20:30 55.51403 11.89292 7272 ft 248 kts 104°
2026-04-26 20:30 55.50912 11.92212 7264 ft 248 kts 104°
2026-04-26 20:30 55.50422 11.95129 7268 ft 248 kts 104°
2026-04-26 20:30 55.49933 11.98053 7281 ft 250 kts 104°
2026-04-26 20:31 55.49425 12.01118 7096 ft 264 kts 104°
2026-04-26 20:31 55.48920 12.04154 6999 ft 252 kts 104°
2026-04-26 20:31 55.48430 12.07077 6950 ft 248 kts 104°
2026-04-26 20:31 55.47942 12.09995 6883 ft 252 kts 104°
2026-04-26 20:32 55.47433 12.13061 6668 ft 268 kts 105°
2026-04-26 20:32 55.46968 12.16218 6308 ft 269 kts 95°
2026-04-26 20:32 55.46909 12.19497 5939 ft 266 kts 89°
2026-04-26 20:32 55.46886 12.22750 5578 ft 264 kts 89°
2026-04-26 20:33 55.46857 12.26034 4985 ft 271 kts 90°
2026-04-26 20:33 55.46821 12.29352 4542 ft 270 kts 90°
2026-04-26 20:33 55.46786 12.32645 4183 ft 267 kts 89°
2026-04-26 20:33 55.46751 12.35903 3822 ft 264 kts 90°
2026-04-26 20:34 55.46894 12.39045 3463 ft 250 kts 73°
2026-04-26 20:34 55.47538 12.41799 3141 ft 241 kts 55°
2026-04-26 20:34 55.48608 12.44041 2792 ft 238 kts 38°
2026-04-26 20:34 55.49853 12.45946 2509 ft 236 kts 38°
2026-04-26 20:35 55.51077 12.47821 2208 ft 227 kts 37°
2026-04-26 20:35 55.52241 12.49611 1897 ft 217 kts 38°
2026-04-26 20:35 55.53351 12.51326 1640 ft 204 kts 38°
2026-04-26 20:35 55.54386 12.52925 1426 ft 190 kts 37°
2026-04-26 20:36 55.55353 12.54414 1136 ft 179 kts 37°
2026-04-26 20:36 55.56247 12.55768 963 ft 162 kts 37°
2026-04-26 20:36 55.57068 12.57018 692 ft 152 kts 40°
2026-04-26 20:36 55.57844 12.58226 440 ft 144 kts 41°
2026-04-26 20:37 55.58581 12.59356 233 ft 138 kts 44°
2026-04-26 20:37 55.59292 12.60464 52 ft 135 kts 44°
2026-04-26 20:37 55.59945 12.61471 18 ft 107 kts 41°
2026-04-26 20:37 55.60376 12.62143 17 ft 58 kts 41°
2026-04-26 20:38 55.60568 12.62440 21 ft 26 kts 43°
2026-04-26 20:38 55.60702 12.62648 20 ft 25 kts 39°
2026-04-26 20:38 55.60818 12.62781 19 ft 19 kts 26°
2026-04-26 20:38 55.60948 12.62859 18 ft 21 kts 10°
2026-04-26 20:39 55.61056 12.62892 17 ft 13 kts
2026-04-26 20:39 55.61109 12.62917 17 ft 12 kts 22°
2026-04-26 20:39 55.61188 12.63018 17 ft 10 kts 40°
2026-04-26 20:39 55.61235 12.63089 18 ft 8 kts 41°
2026-04-26 20:40 55.61276 12.63153 18 ft 9 kts 41°
2026-04-26 20:40 55.61329 12.63234 19 ft 10 kts 41°
2026-04-26 20:40 55.61375 12.63307 17 ft 8 kts 42°
2026-04-26 20:40 55.61440 12.63407 19 ft 17 kts 41°
2026-04-26 20:41 55.61542 12.63567 17 ft 22 kts 41°
2026-04-26 20:41 55.61660 12.63749 19 ft 23 kts 41°
2026-04-26 20:41 55.61785 12.63943 17 ft 22 kts 41°
2026-04-26 20:41 55.61910 12.64110 17 ft 23 kts 27°
2026-04-26 20:42 55.62057 12.64234 17 ft 24 kts 25°
2026-04-26 20:42 55.62210 12.64361 15 ft 23 kts 29°
2026-04-26 20:42 55.62285 12.64546 17 ft 18 kts 67°
2026-04-26 20:42 55.62336 12.64759 19 ft 19 kts 66°
2026-04-26 20:43 55.62326 12.64936 19 ft 16 kts 125°
2026-04-26 20:43 55.62271 12.65109 18 ft 17 kts 97°
2026-04-26 20:43 55.62356 12.65205 17 ft 17 kts 355°
2026-04-26 20:43 55.62441 12.65286 17 ft 15 kts 69°
2026-04-26 20:44 55.62535 12.65326 17 ft 13 kts 357°
2026-04-26 20:44 55.62627 12.65314 18 ft 11 kts 342°
2026-04-26 20:44 55.62681 12.65306 17 ft 7 kts 17°
2026-04-26 20:44 55.62714 12.65324 17 ft 1 kts 17°
2026-04-26 20:45 55.62719 12.65327 19 ft 1 kts 17°
2026-04-26 20:45 55.62720 12.65327 17 ft 0 kts 17°